This is the latest recevied weather packets stored in our database for station/object K5GTX. If no packets are shown the sender has not sent any weather packets the latest 10 day(s).
| Time | Temp. | Humidity | Pressure | Rain* | Wind** | Luminosity | Snow |
|---|---|---|---|---|---|---|---|
| 1777910192 | 22.78° C | 99% | 1019.1 hPa | 0 mm | - | 539 W/m² | - |
| 1777909890 | 22.22° C | 99% | 1019.2 hPa | 0 mm | - | 554 W/m² | - |
| 1777909586 | 22.22° C | 99% | 1019 hPa | 0 mm | - | 669 W/m² | - |
| 1777909284 | 22.78° C | 99% | 1019.1 hPa | 0 mm | - | 582 W/m² | - |
| 1777908982 | 22.78° C | 99% | 1019.1 hPa | 0 mm | - | 612 W/m² | - |
| 1777908680 | 22.78° C | 99% | 1019.4 hPa | 0 mm | - | 544 W/m² | - |
| 1777908376 | 22.22° C | 99% | 1019.2 hPa | 0 mm | - | 551 W/m² | - |
| 1777908072 | 21.67° C | 99% | 1019.4 hPa | 0 mm | - | 505 W/m² | - |
| 1777907768 | 21.67° C | 99% | 1019.4 hPa | 0 mm | - | 559 W/m² | - |
| 1777907463 | 21.67° C | 99% | 1019.4 hPa | 0 mm | - | 458 W/m² | - |
| 1777907161 | 21.67° C | 99% | 1019.5 hPa | 0 mm | - | 471 W/m² | - |
| 1777906858 | 21.11° C | 99% | 1019.3 hPa | 0 mm | - | 470 W/m² | - |
| 1777906555 | 21.11° C | 99% | 1019.4 hPa | 0 mm | - | 416 W/m² | - |
| 1777906250 | 20.56° C | 99% | 1019.5 hPa | 0 mm | - | 443 W/m² | - |
| 1777905947 | 21.11° C | 99% | 1019.2 hPa | 0 mm | - | 423 W/m² | - |
| 1777905644 | 20.56° C | 99% | 1019.4 hPa | 0 mm | - | 344 W/m² | - |
| 1777905341 | 20.56° C | 99% | 1019.5 hPa | 0 mm | - | 307 W/m² | - |
| 1777905039 | 20.56° C | 99% | 1019.5 hPa | 0 mm | - | 319 W/m² | - |
| 1777904736 | 20° C | 99% | 1019.7 hPa | 0 mm | - | 388 W/m² | - |
| 1777904433 | 20° C | 99% | 1019.5 hPa | 0 mm | - | 253 W/m² | - |
| 1777904129 | 20° C | 99% | 1019.5 hPa | 0 mm | - | 194 W/m² | - |
| 1777903826 | 20° C | 99% | 1019.9 hPa | 0 mm | - | 306 W/m² | - |
| 1777903523 | 19.44° C | 99% | 1019.8 hPa | 0 mm | - | 269 W/m² | - |
| 1777903219 | 19.44° C | 99% | 1019.8 hPa | 0 mm | - | 235 W/m² | - |
| 1777902915 | 20° C | 99% | 1019.7 hPa | 0 mm | - | 219 W/m² | - |
* Rain latest hour (hover to see other rain measurements)
** Current wind speed in m/s (hover to see current wind gust speed)